[[{"header":{"parameterUnit":"m.s-1","parameterCategory":1,"la1":30.2991,"la2":30.254,"lo1":-89.0895,"lo2":-89.0444,"dy":0.0017,"dx":0.0017,"nx":28,"ny":28,"refTime":"2024-02-28T03:00:00:Z","depth":0,"parameterNumber":2,"parameterNumberName":"U-component_of_WINDS"},"data":[0,0,0,0,0,0,0,0,0,0,0,0,0,0,0,0,0,0,0,0,0,0,0,0,0,0,0,0,0,0,0,0,0,0,0,0,0,0,0,0,0,0,0,0,0,0,0,0,0,0,0,0,0,0,0,0,0,0,0.5781,0.578,0,0.5754,0.5753,0.5753,0.5725,0.5725,0.5725,0.5724,0.5696,0.5696,0.5695,0,0,0,0,0,0,0,0,0,0,0,0,0,0.5808,0.5807,0.5781,0.578,0.578,0.5754,0.5753,0.5753,0.5725,0.5725,0.5724,0.5724,0.5696,0.5696,0.5695,0,0,0,0,0,0,0,0,0,0,0,0,0,0.579,0.5807,0.5781,0.5763,0.5761,0.5754,0.5753,0.5753,0.5725,0.5725,0.5724,0.5724,0.5697,0.5696,0.5695,0.5703,0,0,0.5694,0.5693,0,0,0,0,0,0,0,0,0.5791,0.5789,0.5766,0.5764,0.5762,0.5742,0.5753,0.5736,0.5726,0.5739,0.5724,0.5724,0.5712,0.571,0.5706,0.5702,0.5701,0.5694,0.5693,0.5693,0.5693,0,0,0,0,0,0,0,0.5792,0.579,0.577,0.5766,0.5763,0.5756,0.5753,0.5749,0.5729,0.5738,0.5736,0.5733,0.5711,0.5707,0.5705,0.57,0.5694,0.5693,0.5693,0.5692,0.5701,0.5701,0,0,0,0,0,0,0.5796,0.5791,0.5771,0.5769,0.5776,0.5756,0.5753,0.5749,0.5729,0.5725,0.5733,0.5732,0.5708,0.5706,0.5704,0.5712,0.5693,0.5692,0.5692,0.57,0.5701,0.5701,0,0,0,0,0,0,0.5797,0.5795,0.5772,0.578,0.5776,0.5756,0.5753,0.5749,0.5745,0.5726,0.5722,0.5733,0.5708,0.5705,0.5704,0.5711,0.5692,0.5692,0.5699,0.57,0.5701,0.5728,0,0,0,0,0,0,0.5798,0.5795,0.5798,0.578,0.5776,0.5772,0.5753,0.5749,0.5744,0.5742,0.5724,0.5721,0.5707,0.5705,0.5703,0.571,0.5691,0.5699,0.57,0.5701,0.5726,0.5729,0.5732,0,0,0,0,0,0.5799,0.5807,0.5798,0.5796,0.5779,0.5772,0.577,0.5754,0.5745,0.5748,0.5735,0.5722,0.571,0.5705,0.5703,0.5709,0.5698,0.5699,0.5701,0.5725,0.5729,0.5732,0,0,0,0,0,0,0.5826,0.5804,0.5795,0.5797,0.5787,0.5768,0.5771,0.5759,0.5751,0.5749,0.5729,0.5725,0.5726,0.5717,0.5712,0.5715,0.5702,0.5703,0.5721,0.5725,0.5728,0.573,0.5691,0,0,0,0,0,0.5832,0.5829,0.581,0.5813,0.5809,0.5791,0.5787,0.5775,0.5764,0.576,0.5747,0.5737,0.5731,0.5727,0.5721,0.5725,0.572,0.5728,0.5731,0.5734,0.5735,0.5736,0.5739,0.5706,0.5706,0.5705,0,0,0.5845,0.5833,0.5832,0.5818,0.5809,0.5806,0.5787,0.5785,0.5782,0.5759,0.5757,0.5748,0.5735,0.5736,0.5736,0.5729,0.5743,0.5735,0.5737,0.5737,0.5738,0.5741,0.5744,0.5706,0.5706,0.5706,0,0,0.5867,0.5857,0.5859,0.585,0.5837,0.5825,0.5825,0.5808,0.5801,0.5798,0.5781,0.5778,0.5768,0.5759,0.5754,0.5772,0.5759,0.577,0.5786,0.5788,0.579,0.5792,0.5799,0.5802,0.5771,0.5771,0.5771,0,0.5884,0.5879,0.5862,0.586,0.5855,0.5834,0.5836,0.5828,0.5813,0.581,0.5802,0.5789,0.5779,0.5778,0.5782,0.5778,0.5778,0.5772,0.5791,0.5793,0.5795,0.5801,0.5804,0.5773,0.5773,0.5773,0.5772,0,0.5901,0.5898,0.5901,0.5887,0.5882,0.5882,0.5865,0.5862,0.585,0.5839,0.5837,0.5823,0.5814,0.5813,0.5802,0.581,0.5806,0.5795,0.5781,0.58,0.5805,0.5808,0.5775,0.5774,0.5774,0.5774,0,0,0.594,0.5916,0.5918,0.5911,0.5894,0.5891,0.589,0.5881,0.5879,0.5869,0.5868,0.586,0.5849,0.5843,0.5831,0.5832,0.5847,0.5821,0.582,0.5826,0.5856,0.5864,0.5867,0.5839,0.5839,0.5839,0.5857,0,0.5959,0.5956,0.594,0.5942,0.5938,0.5919,0.5918,0.5907,0.5897,0.5892,0.588,0.5875,0.5862,0.5858,0.5858,0.5845,0.5853,0.5844,0.5837,0.5837,0.5841,0.587,0.5878,0.5895,0.5859,0.5859,0.5859,0,0.598,0.5972,0.5974,0.5957,0.5955,0.5955,0.5945,0.594,0.5928,0.592,0.5913,0.5899,0.5897,0.5884,0.588,0.5875,0.5871,0.5864,0.5864,0.5863,0.5849,0.5869,0.59,0.5903,0.5862,0.5862,0.5862,0,0.6008,0.5998,0.5997,0.5992,0.5973,0.5973,0.5965,0.5952,0.5947,0.5938,0.5935,0.5926,0.5921,0.5915,0.5899,0.5891,0.5897,0.5883,0.589,0.5891,0.5892,0.5893,0.5924,0.589,0.589,0.589,0.589,0,0.6031,0.6033,0.6009,0.6009,0.601,0.5992,0.5994,0.5984,0.5972,0.597,0.5952,0.595,0.5929,0.5924,0.5911,0.591,0.5908,0.5902,0.5898,0.5903,0.5904,0.59,0.5899,0.5891,0.589,0.589,0.589,0,0.6063,0.6047,0.6045,0.6027,0.6022,0.6024,0.6008,0.6007,0.5995,0.5992,0.599,0.5972,0.5965,0.5948,0.5938,0.5929,0.5931,0.5925,0.5936,0.5933,0.5942,0.5941,0.5972,0.5975,0.5939,0.594,0.594,0,0.6078,0.6079,0.6061,0.6058,0.6051,0.6046,0.6041,0.6023,0.6019,0.6005,0.6005,0.5997,0.599,0.5981,0.5966,0.5958,0.5951,0.5962,0.595,0.5954,0.5951,0.5951,0.5951,0.5965,0.5966,0.5966,0.5966,0,0.6108,0.61,0.6094,0.6085,0.608,0.6072,0.6063,0.6061,0.6041,0.6037,0.603,0.6024,0.6013,0.6006,0.5995,0.5986,0.5973,0.597,0.5972,0.5977,0.5983,0.5979,0.5943,0.597,0.5969,0.5969,0.5969,0.5969,0.6132,0.6132,0.6119,0.6113,0.6104,0.6096,0.6094,0.6082,0.6076,0.6066,0.6055,0.6049,0.6037,0.6021,0.6013,0.6008,0.6001,0.6003,0.6004,0.6004,0.6007,0.5983,0.6006,0.6006,0.6006,0.6006,0.6006,0,0.616,0.6151,0.6146,0.6134,0.6129,0.6117,0.6106,0.6102,0.6098,0.6087,0.608,0.6072,0.6065,0.605,0.6041,0.604,0.6033,0.6038,0.6038,0.6036,0.6013,0.6013,0.6043,0.6043,0.6043,0.6043,0.6043,0.6043,0.6175,0.6174,0.6164,0.6159,0.6149,0.6144,0.6139,0.6131,0.6123,0.6115,0.6108,0.6098,0.6086,0.6076,0.6068,0.6064,0.6061,0.6068,0.6062,0.6041,0.6037,0.6034,0.6034,0.6068,0.6068,0.6084,0.6085,0.6085]},{"header":{"parameterUnit":"m.s-1","parameterCategory":1,"la1":30.2991,"la2":30.254,"lo1":-89.0895,"lo2":-89.0444,"dy":0.0017,"dx":0.0017,"nx":28,"ny":28,"refTime":"2024-02-28T03:00:00:Z","depth":0,"parameterNumber":3,"parameterNumberName":"V-component_of_WINDS"},"data":[0,0,0,0,0,0,0,0,0,0,0,0,0,0,0,0,0,0,0,0,0,0,0,0,0,0,0,0,0,0,0,0,0,0,0,0,0,0,0,0,0,0,0,0,0,0,0,0,0,0,0,0,0,0,0,0,0,0,4.8671,4.8671,0,4.8663,4.8663,4.8663,4.8634,4.8633,4.8632,4.8632,4.8623,4.8623,4.8624,0,0,0,0,0,0,0,0,0,0,0,0,0,4.8661,4.8662,4.8671,4.8671,4.8671,4.8663,4.8663,4.8663,4.8634,4.8633,4.8632,4.8631,4.8623,4.8623,4.8624,0,0,0,0,0,0,0,0,0,0,0,0,0,4.8661,4.8662,4.8671,4.8656,4.8654,4.8663,4.8663,4.8663,4.8634,4.8633,4.8632,4.8631,4.8623,4.8623,4.8624,4.8647,0,0,4.8625,4.8626,0,0,0,0,0,0,0,0,4.8661,4.8661,4.8658,4.8657,4.8655,4.8649,4.8656,4.8658,4.8634,4.8642,4.8632,4.8631,4.8632,4.8632,4.8633,4.8647,4.8646,4.8626,4.8626,4.8626,4.8626,0,0,0,0,0,0,0,4.8661,4.8661,4.8668,4.8658,4.8656,4.8649,4.8648,4.8657,4.8643,4.8641,4.8639,4.8638,4.8631,4.8632,4.8632,4.8646,4.8625,4.8626,4.8626,4.8627,4.8682,4.8683,0,0,0,0,0,0,4.8663,4.8661,4.8668,4.8668,4.8656,4.865,4.8649,4.8652,4.8642,4.864,4.8639,4.8637,4.8632,4.8631,4.8632,4.8661,4.8626,4.8627,4.8627,4.8681,4.8683,4.8684,0,0,0,0,0,0,4.8663,4.8664,4.8669,4.8664,4.8664,4.8651,4.8655,4.8652,4.8653,4.8641,4.8638,4.8643,4.8631,4.8631,4.8644,4.866,4.8627,4.8627,4.868,4.8682,4.8683,4.8718,0,0,0,0,0,0,4.8663,4.8664,4.8673,4.8665,4.8665,4.8681,4.8656,4.8653,4.8654,4.8651,4.8644,4.8641,4.863,4.8644,4.8645,4.866,4.8628,4.8678,4.8681,4.8683,4.8715,4.872,4.8725,0,0,0,0,0,4.8663,4.8682,4.8673,4.8674,4.8675,4.8682,4.8682,4.8669,4.8655,4.8664,4.8657,4.8642,4.8658,4.8645,4.8646,4.8662,4.8677,4.868,4.8682,4.8713,4.8719,4.8725,0,0,0,0,0,0,4.8692,4.8681,4.8671,4.8688,4.8687,4.8677,4.8688,4.8676,4.8677,4.8675,4.8658,4.8656,4.8673,4.8668,4.8654,4.8686,4.8665,4.8668,4.8688,4.8694,4.8699,4.87,4.8628,0,0,0,0,0,4.87,4.8707,4.8697,4.8713,4.8713,4.8701,4.8703,4.8693,4.8691,4.869,4.8683,4.8681,4.8686,4.8689,4.8693,4.8714,4.8713,4.8726,4.873,4.8735,4.8738,4.8751,4.8757,4.8692,4.8692,4.8692,0,0,4.8718,4.8712,4.8718,4.8719,4.8716,4.8725,4.87,4.8709,4.8715,4.8691,4.8704,4.8699,4.8696,4.8714,4.8722,4.8711,4.8755,4.8738,4.8741,4.8742,4.8754,4.876,4.8766,4.8694,4.8694,4.8693,0,0,4.8754,4.875,4.8764,4.8763,4.876,4.8752,4.8756,4.8748,4.8745,4.8758,4.874,4.8747,4.8755,4.8754,4.8755,4.8793,4.878,4.8795,4.8821,4.8834,4.8839,4.8843,4.8859,4.8864,4.8798,4.8798,4.8798,0,4.8776,4.8788,4.8773,4.8784,4.8786,4.8765,4.878,4.8779,4.8777,4.8779,4.8767,4.8779,4.8775,4.8794,4.8803,4.8804,4.8808,4.8796,4.8839,4.8844,4.8847,4.8862,4.8868,4.88,4.8799,4.8799,4.8799,0,4.8816,4.8824,4.8836,4.8836,4.8839,4.8852,4.884,4.8845,4.8835,4.8829,4.8843,4.8838,4.8841,4.8845,4.8834,4.8863,4.8857,4.8842,4.8821,4.8856,4.887,4.8875,4.8802,4.8802,4.8801,4.8801,0,0,4.887,4.8863,4.8868,4.8869,4.8865,4.8871,4.8884,4.8888,4.8893,4.8892,4.8904,4.8912,4.8899,4.89,4.889,4.8901,4.8934,4.8885,4.8885,4.8896,4.8967,4.898,4.8986,4.8925,4.8926,4.8927,4.8968,0,4.8906,4.8928,4.8916,4.8939,4.8948,4.8929,4.894,4.8939,4.8934,4.8941,4.8934,4.8941,4.8923,4.8924,4.8934,4.8928,4.8949,4.8925,4.8936,4.8937,4.8939,4.8993,4.9005,4.9045,4.8973,4.8974,4.8975,0,4.8951,4.8955,4.8979,4.8976,4.8979,4.8989,4.8993,4.8999,4.8998,4.8994,4.8996,4.8983,4.8996,4.8975,4.8993,4.8977,4.8981,4.8979,4.898,4.8982,4.8959,4.8998,4.9057,4.9064,4.8983,4.8982,4.8982,0,4.8991,4.9001,4.9018,4.9019,4.9014,4.9023,4.9021,4.9019,4.9023,4.9026,4.9029,4.9033,4.9036,4.904,4.9029,4.9015,4.905,4.9027,4.9048,4.9048,4.9057,4.9057,4.9119,4.9057,4.9057,4.9056,4.9056,0,4.9034,4.905,4.9036,4.9046,4.9065,4.9051,4.9069,4.9066,4.9065,4.9075,4.9058,4.9067,4.9052,4.9061,4.9052,4.907,4.9071,4.9068,4.9066,4.9071,4.9071,4.9074,4.9072,4.9058,4.9058,4.9057,4.9057,0,4.9081,4.9072,4.909,4.9085,4.9084,4.9098,4.9094,4.9104,4.9098,4.9111,4.9113,4.9103,4.9112,4.9102,4.911,4.9105,4.9129,4.9122,4.913,4.9129,4.915,4.9149,4.9218,4.9227,4.9157,4.9158,4.9158,0,4.911,4.9122,4.912,4.9125,4.9125,4.9134,4.9139,4.9126,4.9132,4.9133,4.9143,4.9151,4.9157,4.9172,4.9166,4.9173,4.9167,4.9191,4.9168,4.9173,4.917,4.917,4.9172,4.9196,4.9197,4.9197,4.9198,0,4.9163,4.9158,4.9165,4.9172,4.9178,4.9182,4.9185,4.919,4.9177,4.9184,4.9194,4.9199,4.9208,4.9217,4.9222,4.922,4.9208,4.9205,4.921,4.9216,4.9221,4.9221,4.9145,4.9204,4.9203,4.9203,4.9202,4.9202,4.9203,4.9214,4.9215,4.9224,4.9225,4.9228,4.9238,4.9234,4.9242,4.9249,4.9241,4.9253,4.9254,4.926,4.926,4.927,4.926,4.9267,4.9269,4.9272,4.9276,4.9218,4.9271,4.927,4.927,4.927,4.927,0,4.9257,4.9256,4.9265,4.927,4.9278,4.9265,4.9268,4.9276,4.9287,4.9289,4.9295,4.9308,4.9316,4.9312,4.9319,4.9329,4.9323,4.9331,4.9331,4.9332,4.9284,4.9279,4.9336,4.9336,4.9336,4.9336,4.9336,4.9336,4.9285,4.9304,4.93,4.932,4.9319,4.9332,4.9335,4.9339,4.934,4.9355,4.9363,4.936,4.9359,4.9367,4.9375,4.9374,4.9378,4.9389,4.9386,4.9341,4.9335,4.9329,4.9324,4.939,4.939,4.9433,4.9433,4.9434]}]]